Weather Roundup
Issued by NWS Chicago, IL

Home | Current Version | Previous Version | Graphics & Text | Print | Product List | Glossary On
Versions: 1 2 3 4 5 6 7 8 9 10 11 12 13 14 15 16 17 18 19 20 21 22 23 24 25 26 27 28 29 30 31 32 33 34 35 36 37 38 39 40 41 42 43 44 45 46 47 48 49 50
000
NZUS59 KLOT 251006
HRRLOT

CHICAGO AREA WEATHER ROUNDUP
NATIONAL WEATHER SERVICE CHICAGO/ROMEOVILLE IL
400 AM CST SUN JAN 25 2015

NOTE: "FAIR" INDICATES FEW OR NO CLOUDS BELOW 12,000 FEET WITH NO
SIGNIFICANT WEATHER AND/OR OBSTRUCTIONS TO VISIBILITY.

* THESE STATIONS ARE NOT UNDER NWS QUALITY CONTROL. THEY ALSO MAY NOT
  REPORT WEATHER SUCH AS PRECIPITATION OR FOG.

ILZ005-006-012>014-019>023-251100-
NORTHEAST ILLINOIS

CITY           SKY/WX    TMP DP  RH WIND       PRES   REMARKS
OHARE          CLOUDY    33  30  88 NE9       29.67S FOG     WCI  25
MIDWAY         CLOUDY    35  32  88 NE8       29.68R WCI  29
AURORA         CLOUDY    33  29  85 NE13      29.67R FOG     WCI  24
LANSING*       CLOUDY    33  32  96 NE6       29.68R FOG     WCI  27
JOLIET*        CLOUDY    33  31  93 NE5       29.67R FOG     WCI  28
WAUKEGAN       FLURRIES  31  29  92 N14G25    29.70R WCI  21
DUPAGE AIRPORT CLOUDY    33  30  88 NE10      29.67R FOG     WCI  25
WHEELING       CLOUDY    34  32  92 NE13      29.71R WCI  25
KANKAKEE*      CLOUDY    32  31  98 E6        29.65F FOG     WCI  26
MORRIS*        CLOUDY    33  33  99 E7        29.65R FOG     WCI  27
LEWIS AIRPORT* CLOUDY    32  31  98 NE8       29.67R FOG     WCI  25
NORTHERLY IS     N/A     33  31  92 N9          N/A  WCI  25
$$

WIZ051-052-058>065-066-070>072-251100-
SOUTHEAST WISCONSIN

CITY           SKY/WX    TMP DP  RH WIND       PRES   REMARKS
MILWAUKEE      FLURRIES  30  24  78 NE22G31   29.76R WCI  17
KENOSHA*       CLOUDY    31  27  85 NE16      29.72R WCI  20
RACINE*        CLOUDY    31  26  82 N18G28    29.75R WCI  19
BURLINGTON     CLOUDY    28  25  88 NE18G25   29.72S WCI  15
WAUKESHA       CLOUDY    27  23  86 NE17G25   29.75S WCI  14
WEST BEND      CLOUDY    27  21  80 NE17G28   29.78R WCI  14
$$

INZ001>003-010>013-019-020-251100-
NORTHWEST INDIANA

CITY           SKY/WX    TMP DP  RH WIND       PRES   REMARKS
GARY*          NOT AVBL
MICHIGAN CITY* NOT AVBL
RENSSELAER*    NOT AVBL
VALPARAISO     FOG       33  32  96 E5        29.67S VSB 3/4 WCI  29
$$

LMZ740>746-251100-
SOUTHERN LAKE MICHIGAN

STATION/POSITION TIME  SKY/WX   TEMP WIND        PRES    VSBY
                                AIR  DIR/SP/G
                 (UTC)          (F)  (DEG/KT/KT) (MB)    (MI)
HARRISON CRIB    1000            33  360/  6/  6   N/A
BURNHAM HARBOR   1000            33   10/  7/  9   N/A
CALUMET HARBOR   1000            33   30/  8/ 10   N/A
BURNS HARBOR     NOT AVBL
MICHIGAN CITY    1000            33   30/  9/ 10   N/A
$$

ABBREVIATIONS USED IN REMARKS
   TC - TEMPERATURE IN CELSIUS
  WCI - WIND CHILL INDEX
   HX - HEAT INDEX
  VSB - VISIBILITY
$$


USA.gov is the U.S. government's official web portal to all federal, state and local government web resources and services.